Meteo pe oră la Dadeng

Astăzi, 15 Aprilie, Joi

Timp Temperatura Precipitaţii Vânt Presiune Umiditate
00:00 +17°C° 0 mm 8 m/s 762 mmHg 71%
01:00 +17°C° 0 mm 8 m/s 762 mmHg 72%
02:00 +17°C° 0 mm 8 m/s 761 mmHg 72%
03:00 +17°C° 0 mm 7 m/s 761 mmHg 72%
04:00 +17°C° 0 mm 7 m/s 761 mmHg 73%
05:00 +17°C° 0 mm 6 m/s 761 mmHg 73%
06:00 +17°C° 0 mm 6 m/s 761 mmHg 71%
07:00 +19°C° 0 mm 5 m/s 762 mmHg 69%
08:00 +19°C° 0 mm 5 m/s 762 mmHg 66%
09:00 +21°C° 0.1 mm 5 m/s 762 mmHg 64%
10:00 +22°C° 0.1 mm 4 m/s 762 mmHg 61%
11:00 +23°C° 0.1 mm 4 m/s 762 mmHg 58%
12:00 +23°C° 0 mm 5 m/s 761 mmHg 58%
13:00 +25°C° 0 mm 5 m/s 760 mmHg 57%
14:00 +25°C° 0 mm 5 m/s 760 mmHg 57%
15:00 +24°C° 0 mm 6 m/s 760 mmHg 59%
16:00 +23°C° 0 mm 6 m/s 760 mmHg 61%
17:00 +23°C° 0 mm 6 m/s 759 mmHg 63%
18:00 +22°C° 0 mm 6 m/s 760 mmHg 67%
19:00 +21°C° 0 mm 6 m/s 761 mmHg 71%
20:00 +20°C° 0 mm 6 m/s 761 mmHg 74%
21:00 +20°C° 0 mm 6 m/s 762 mmHg 75%
22:00 +20°C° 0 mm 6 m/s 762 mmHg 75%
23:00 +19°C° 0 mm 5 m/s 762 mmHg 76%

Mâine, 16 Aprilie, Vineri

Timp Temperatura Precipitaţii Vânt Presiune Umiditate
00:00 +19°C° 0 mm 5 m/s 762 mmHg 76%
01:00 +19°C° 0 mm 5 m/s 761 mmHg 76%
02:00 +19°C° 0 mm 5 m/s 761 mmHg 76%
03:00 +19°C° 0 mm 4 m/s 761 mmHg 77%
04:00 +19°C° 0 mm 4 m/s 761 mmHg 77%
05:00 +19°C° 0 mm 3 m/s 761 mmHg 78%
06:00 +20°C° 0 mm 3 m/s 761 mmHg 77%
07:00 +20°C° 0 mm 3 m/s 762 mmHg 75%
08:00 +20°C° 0 mm 2 m/s 762 mmHg 74%
09:00 +22°C° 0 mm 3 m/s 762 mmHg 68%
10:00 +25°C° 0 mm 3 m/s 762 mmHg 62%
11:00 +26°C° 0 mm 4 m/s 762 mmHg 57%
12:00 +27°C° 0 mm 4 m/s 761 mmHg 56%
13:00 +27°C° 0 mm 4 m/s 761 mmHg 55%
14:00 +27°C° 0 mm 5 m/s 760 mmHg 54%
15:00 +27°C° 0 mm 4 m/s 760 mmHg 57%
16:00 +26°C° 0 mm 4 m/s 760 mmHg 60%
17:00 +25°C° 0 mm 3 m/s 760 mmHg 63%
18:00 +23°C° 0 mm 4 m/s 761 mmHg 66%
19:00 +22°C° 0 mm 4 m/s 761 mmHg 68%
20:00 +22°C° 0 mm 4 m/s 762 mmHg 70%
21:00 +22°C° 0 mm 4 m/s 762 mmHg 71%
22:00 +21°C° 0 mm 4 m/s 762 mmHg 72%
23:00 +21°C° 0 mm 4 m/s 762 mmHg 73%

Poimâine, 17 Aprilie, Sâmbătă

Timp Temperatura Precipitaţii Vânt Presiune Umiditate
00:00 +21°C° 0 mm 4 m/s 762 mmHg 74%
01:00 +20°C° 0 mm 3 m/s 762 mmHg 76%
02:00 +20°C° 0 mm 3 m/s 762 mmHg 78%
03:00 +20°C° 0 mm 3 m/s 762 mmHg 78%
04:00 +20°C° 0 mm 4 m/s 762 mmHg 78%
05:00 +20°C° 0 mm 4 m/s 762 mmHg 78%
06:00 +20°C° 0 mm 5 m/s 763 mmHg 76%
07:00 +20°C° 0 mm 6 m/s 763 mmHg 74%
08:00 +21°C° 0 mm 7 m/s 764 mmHg 72%
09:00 +22°C° 0 mm 7 m/s 764 mmHg 68%
10:00 +23°C° 0 mm 7 m/s 764 mmHg 64%
11:00 +24°C° 0 mm 7 m/s 764 mmHg 60%
12:00 +26°C° 0 mm 7 m/s 763 mmHg 58%
13:00 +26°C° 0 mm 7 m/s 763 mmHg 57%
14:00 +27°C° 0 mm 7 m/s 762 mmHg 55%
15:00 +26°C° 0 mm 8 m/s 762 mmHg 56%
16:00 +26°C° 0 mm 8 m/s 762 mmHg 57%
17:00 +24°C° 0 mm 9 m/s 762 mmHg 58%
18:00 +23°C° 0 mm 9 m/s 763 mmHg 61%
19:00 +22°C° 0 mm 9 m/s 764 mmHg 65%
20:00 +21°C° 0 mm 9 m/s 764 mmHg 68%
21:00 +21°C° 0 mm 9 m/s 765 mmHg 67%
22:00 +21°C° 0 mm 9 m/s 765 mmHg 67%
23:00 +19°C° 0 mm 9 m/s 765 mmHg 67%

18 Aprilie, Duminică

Timp Temperatura Precipitaţii Vânt Presiune Umiditate
00:00 +19°C° 0 mm 9 m/s 765 mmHg 66%
01:00 +19°C° 0 mm 9 m/s 764 mmHg 65%
02:00 +19°C° 0 mm 9 m/s 764 mmHg 64%
03:00 +19°C° 0 mm 9 m/s 764 mmHg 63%
04:00 +18°C° 0 mm 9 m/s 764 mmHg 63%
05:00 +18°C° 0 mm 9 m/s 764 mmHg 62%
06:00 +19°C° 0 mm 9 m/s 764 mmHg 58%
07:00 +19°C° 0 mm 9 m/s 764 mmHg 54%
08:00 +21°C° 0 mm 9 m/s 765 mmHg 50%
09:00 +22°C° 0 mm 9 m/s 764 mmHg 45%
10:00 +24°C° 0 mm 10 m/s 764 mmHg 40%
11:00 +26°C° 0 mm 10 m/s 764 mmHg 34%
12:00 +26°C° 0 mm 10 m/s 763 mmHg 34%
13:00 +27°C° 0 mm 11 m/s 762 mmHg 34%
14:00 +27°C° 0 mm 11 m/s 762 mmHg 34%
15:00 +26°C° 0 mm 11 m/s 762 mmHg 38%
16:00 +23°C° 0 mm 11 m/s 761 mmHg 41%
17:00 +22°C° 0 mm 12 m/s 761 mmHg 45%
18:00 +21°C° 0 mm 11 m/s 762 mmHg 47%
19:00 +19°C° 0 mm 11 m/s 762 mmHg 49%
20:00 +18°C° 0 mm 11 m/s 763 mmHg 51%
21:00 +18°C° 0 mm 10 m/s 763 mmHg 50%
22:00 +18°C° 0 mm 9 m/s 763 mmHg 50%
23:00 +17°C° 0 mm 8 m/s 763 mmHg 49%

19 Aprilie, Luni

Timp Temperatura Precipitaţii Vânt Presiune Umiditate
00:00 +17°C° 0 mm 8 m/s 763 mmHg 49%
01:00 +17°C° 0 mm 7 m/s 762 mmHg 49%
02:00 +17°C° 0 mm 6 m/s 762 mmHg 50%
03:00 +17°C° 0 mm 6 m/s 762 mmHg 51%
04:00 +16°C° 0 mm 6 m/s 761 mmHg 52%
05:00 +16°C° 0 mm 6 m/s 761 mmHg 53%
06:00 +17°C° 0 mm 7 m/s 762 mmHg 51%
07:00 +18°C° 0 mm 7 m/s 762 mmHg 48%
08:00 +18°C° 0 mm 7 m/s 762 mmHg 46%
09:00 +21°C° 0 mm 7 m/s 762 mmHg 42%
10:00 +23°C° 0 mm 7 m/s 762 mmHg 37%
11:00 +24°C° 0 mm 8 m/s 762 mmHg 32%
12:00 +26°C° 0 mm 8 m/s 762 mmHg 32%
13:00 +27°C° 0 mm 9 m/s 761 mmHg 31%
14:00 +27°C° 0 mm 9 m/s 760 mmHg 31%
15:00 +26°C° 0 mm 9 m/s 760 mmHg 34%
16:00 +24°C° 0 mm 10 m/s 760 mmHg 38%
17:00 +23°C° 0 mm 10 m/s 760 mmHg 41%
18:00 +22°C° 0 mm 10 m/s 760 mmHg 45%
19:00 +21°C° 0 mm 9 m/s 761 mmHg 48%
20:00 +18°C° 0 mm 9 m/s 761 mmHg 52%
21:00 +18°C° 0 mm 8 m/s 762 mmHg 52%
22:00 +18°C° 0 mm 8 m/s 762 mmHg 51%
23:00 +17°C° 0 mm 7 m/s 762 mmHg 51%

20 Aprilie, Marţi

Timp Temperatura Precipitaţii Vânt Presiune Umiditate
00:00 +17°C° 0 mm 6 m/s 761 mmHg 52%
01:00 +17°C° 0 mm 5 m/s 761 mmHg 53%
02:00 +17°C° 0 mm 5 m/s 760 mmHg 53%
03:00 +17°C° 0 mm 5 m/s 761 mmHg 55%
04:00 +16°C° 0 mm 6 m/s 761 mmHg 56%
05:00 +16°C° 0 mm 6 m/s 761 mmHg 58%
06:00 +17°C° 0 mm 6 m/s 761 mmHg 53%
07:00 +18°C° 0 mm 7 m/s 762 mmHg 49%
08:00 +20°C° 0 mm 7 m/s 762 mmHg 45%
09:00 +22°C° 0 mm 7 m/s 762 mmHg 39%
10:00 +24°C° 0 mm 8 m/s 762 mmHg 33%
11:00 +27°C° 0 mm 8 m/s 762 mmHg 28%
12:00 +27°C° 0 mm 9 m/s 761 mmHg 29%
13:00 +28°C° 0 mm 9 m/s 761 mmHg 30%
14:00 +28°C° 0 mm 10 m/s 760 mmHg 32%
15:00 +27°C° 0 mm 10 m/s 760 mmHg 33%
16:00 +27°C° 0 mm 10 m/s 760 mmHg 35%
17:00 +26°C° 0 mm 10 m/s 760 mmHg 37%
18:00 +24°C° 0 mm 10 m/s 760 mmHg 40%
19:00 +22°C° 0 mm 9 m/s 761 mmHg 44%
20:00 +21°C° 0 mm 9 m/s 761 mmHg 48%
21:00 +21°C° 0 mm 8 m/s 761 mmHg 48%
22:00 +20°C° 0 mm 7 m/s 761 mmHg 49%
23:00 +20°C° 0 mm 7 m/s 761 mmHg 49%
Arată mai mult

Formular de consimțământ

Meteoprog și furnizorii noștri de servicii pot stoca și accesa date personale, precum cookies, identificatori de dispozitiv sau alte tehnologii similare pe dispozitivul dumneavoastră și procesa astfel de date pentru a personaliza conținutul și reclamele, dar și pentru a oferi caracteristici de social media și pentru a analiza traficul.

  • Stocarea și/sau accesarea informațiilor pe dispozitivul dumneavoastră

    Cookies, identificatori de dispozitiv sau alte informații pot fi stocate sau accesate pe dispozitiv în scopurile indicate mai sus.

  • Reclame și conținut personalizat, evaluarea reclamelor și a conținutului, informații despre audiențe și dezvoltarea produselor

    Reclamele și conținutul pot fi personalizate pe baza unui profil. Pot fi adăugate date suplimentare pentru a personaliza mai bine reclamele și conținutul. Performanța reclamelor și conținutului poate fi măsurată. Pot fi obținute informații despre utilizatorii care au văzut reclamele și conținutul. Aceste date pot fi utilizate pentru a dezvolta sau îmbunătăți experiența utilizatorilor, sistemele și software-ul.

Dând clic pe ‘Sunt de acord’, permiteți utilizarea cookie-urilor menționate, a identificatorilor de dispozitiv, balizelor web sau altor tehnologii similare. Setările pot fi modificate din browser-ul dispozitivului dumneavoastră.

În anumite scopuri, interesele legitime pot prima asupra consimțământului. Puteți citi mai multe informații în acest sens în Politica privind Confidențialitatea Datelor și Cookie.